Форум фильмов, сериалов и мультфильмов

Объявление

Информация о пользователе

Привет, Гость! Войдите или зарегистрируйтесь.


Вы здесь » Форум фильмов, сериалов и мультфильмов » Зарубежная музыка


Зарубежная музыка

Тем 22501 страница 22530 из 28467

Тема Ответов Просмотров Последнее сообщение
0 9 23.03.2015 19:34:23  magikgate
22502 Tuomas.L - Afterlife  magikgate
0 11 23.03.2015 19:29:07  magikgate
0 9 23.03.2015 19:23:31  magikgate
0 9 23.03.2015 19:18:06  magikgate
0 21 23.03.2015 19:13:05  magikgate
22506 NDsounds - Dimension  magikgate
0 9 23.03.2015 18:56:05  magikgate
22507 Myk Bee - Essences  magikgate
0 10 23.03.2015 18:51:17  magikgate
0 9 23.03.2015 18:44:25  magikgate
0 13 23.03.2015 18:36:53  magikgate
0 14 23.03.2015 18:31:21  magikgate
0 15 23.03.2015 18:26:49  magikgate
22512 Bilal El Aly - Memories  magikgate
0 8 23.03.2015 18:21:41  magikgate
22513 4 Strings - Take Me Away  magikgate
0 9 23.03.2015 18:16:20  magikgate
0 10 23.03.2015 16:53:00  magikgate
0 10 23.03.2015 16:51:33  magikgate
0 8 23.03.2015 16:42:20  magikgate
22517 Nianaro - Cyborgs  magikgate
0 8 23.03.2015 16:37:28  magikgate
22518 Mcaree & Clancy - Morrigan  magikgate
0 8 23.03.2015 16:30:26  magikgate
0 8 23.03.2015 16:22:50  magikgate
22520 Leolife - Raider  magikgate
0 8 23.03.2015 16:17:24  magikgate
22521 Kinetica - One Dream  magikgate
0 8 23.03.2015 16:10:16  magikgate
0 9 23.03.2015 16:04:03  magikgate
0 8 23.03.2015 15:47:18  magikgate
22524 Fred Baker - Rebirth  magikgate
0 18 23.03.2015 15:42:24  magikgate
0 8 23.03.2015 15:27:15  magikgate
0 11 23.03.2015 13:11:29  magikgate
0 9 23.03.2015 11:45:23  magikgate
0 72 23.03.2015 10:10:48  magikgate
0 8 23.03.2015 09:42:50  magikgate
0 11 23.03.2015 09:08:48  magikgate

Вы здесь » Форум фильмов, сериалов и мультфильмов » Зарубежная музыка